Torna al catalogo

CZ-6A DEB

AttivoPO
NORAD 60873·DEBRIS·🇨🇳 China

Lanciato Aug 6, 2024 da Taiyuan Satellite Launch Center

Loading…

Prossimi Passaggi (prossime 24 ore)

TLE

AggiornatoSource: Space-Track

Epoca: Sep 14, 2026, 00:52 UTC

1 60873U 24140KC  26257.03669396  .00000908  00000-0  44781-3 0  9993
2 60873  89.1078 275.5064 0069699 273.7323  85.5896 14.15497212107414

Traccia CZ-6A DEB in tempo reale con AllMySat

Download on the App Store